#timestamp,LO_Frequency,Hit,StdDev 
1533171615.5,286046998.3,N
1533171635.4,286047001.1,N
1533171655.2,286047001.1,N
1533171675.0,286047001.2,N
1533171675.9,286047001.2,N
1533171695.8,286046998.2,N
1533171715.6,286046998.1,N
1533171735.5,286047000.4,N
1533171755.3,286047001.1,N
1533171775.1,286046998.6,N
1533171795.9,286047001.0,N
1533171815.7,286047000.1,N
1533171835.6,286046999.9,N
1533171855.4,286046999.7,N
1533171875.2,286047000.3,N
1533171895.1,286047000.7,N
1533171896.0,286047000.7,N
1533171915.8,286047000.7,N
1533171935.6,286046998.6,N
1533171955.5,286047000.7,N
1533171975.3,286047000.7,N
1533171995.3,286047000.8,N
1533172015.2,286046998.1,N
1533172035.0,286047001.2,N
1533172035.9,286047001.2,N
1533172055.8,286047000.8,N
1533172075.6,286046998.1,N
1533172095.4,286046998.4,N
1533172115.3,286046998.8,N
1533172135.1,286046998.9,N
1533172155.9,286046996.7,N
1533172175.7,286046996.7,N
1533172195.5,286046999.6,N
1533172215.4,286046997.0,N
1533172235.2,286046997.4,N
1533172255.0,286046997.1,N
1533172255.9,286046997.1,N
1533172275.8,286046997.3,N
1533172295.6,286046997.9,N
1533172315.5,286046998.0,N
1533172335.3,286046994.9,Y
1533172355.1,286046995.7,P
1533172375.9,286046995.0,N
1533172395.7,286046995.1,N
1533172415.6,286046995.6,N
1533172435.4,286046995.9,N
1533172455.2,286046993.7,Y
1533172475.1,286046998.8,P
1533172476.0,286046998.8,N
1533172495.8,286046999.3,N
1533172515.6,286046999.4,N
1533172535.4,286046999.0,N
1533172555.2,286046998.5,N
1533172575.1,286046998.2,N
1533172576.0,286046998.2,N
1533172595.8,286046999.5,N
1533172615.7,286046999.6,N
1533172635.5,286046999.1,N
1533172655.3,286046999.5,N
1533172675.2,286046996.6,Y
1533172695.0,286046998.3,P
1533172695.9,286046998.3,P
1533172715.8,286046996.5,P
1533172735.6,286046999.3,N
1533172755.4,286046998.8,N
1533172775.3,286046998.7,N
1533172795.1,286046999.2,N
1533172815.9,286046996.5,Y
1533172835.7,286046998.4,P
1533172855.5,286046998.8,P
1533172875.4,286046998.8,P
1533172895.2,286046998.9,Y
1533172915.1,286047000.4,P
1533172916.0,286047000.4,N
1533172935.8,286047000.2,N
1533172955.6,286047000.8,N
1533172975.5,286047000.7,N
1533172995.3,286047000.8,N
1533173015.1,286047000.9,N
1533173035.9,286046998.5,N
1533173055.7,286046998.4,N
1533173075.6,286046998.7,N
1533173095.4,286046999.2,N
1533173115.2,286046999.0,N
1533173135.1,286047001.2,N
1533173136.0,286047001.2,N
1533173155.8,286047001.2,N
1533173175.6,286046998.3,N
1533173195.5,286046998.6,N
1533173215.3,286046998.9,N
1533173235.2,286046998.6,N
1533173255.9,286046998.3,N
1533173275.7,286046998.5,N
1533173295.6,286046998.6,N
1533173315.4,286046998.2,N
1533173335.3,286046998.7,N
1533173355.1,286046998.4,N
1533173356.0,286046998.4,N
1533173375.8,286046998.7,N
1533173395.7,286046998.2,N
1533173415.5,286046999.0,N
1533173435.3,286046999.4,N
1533173455.2,286046998.3,N
1533173475.0,286046998.6,N
1533173475.9,286046998.6,N
1533173495.8,286046998.2,N
1533173515.6,286046998.3,N
1533173535.4,286046999.0,N
1533173555.3,286046998.8,N
1533173575.1,286046999.0,N
1533173595.9,286046998.4,N
1533173615.7,286046999.0,N
1533173635.5,286046998.5,N
1533173655.4,286046998.9,N
1533173675.2,286046999.6,N
1533173695.0,286046999.3,N
1533173695.9,286046999.3,N
1533173715.8,286046999.2,N
1533173735.6,286046998.7,Y
1533173755.5,286046998.1,P
1533173775.3,286047000.5,N
1533173795.1,286047000.9,N
1533173815.9,286046999.3,N
1533173835.7,286046997.0,N
1533173855.5,286046996.9,N
1533173875.4,286046996.9,N
1533173895.2,286046999.1,N
1533173915.0,286046998.8,N
1533173916.0,286046998.8,N
1533173935.8,286046999.5,N
1533173955.6,286046998.4,N
1533173975.5,286047000.6,N
1533173995.3,286046998.5,N
1533174015.1,286046998.1,N
1533174035.9,286046998.4,N
1533174055.7,286046998.8,N
1533174075.6,286047001.0,N
1533174095.4,286047001.1,N
1533174115.2,286047000.8,N
1533174135.1,286047000.9,N
1533174136.0,286047000.9,N
1533174155.8,286046998.5,N
1533174175.7,286047000.7,N
1533174195.5,286047000.6,N
1533174215.3,286047001.0,N
1533174265.2,286046998.1,E
1533174275.1,286046999.9,N
1533174295.9,286047002.3,P
1533174315.7,286047001.8,N
1533174335.5,286047002.0,N
1533174355.4,286047002.6,N
1533174375.2,286047002.5,N
1533174395.1,286046999.7,N
1533174396.0,286046999.7,N
1533174415.8,286047002.4,N
1533174435.6,286046999.9,N
1533174455.5,286046998.1,N
1533174475.3,286046998.2,N
1533174495.1,286047000.6,N
1533174515.9,286046999.7,N
1533174535.7,286047002.6,N
1533174555.6,286047002.6,N
1533174575.4,286047002.4,N
1533174595.2,286047001.9,N
1533174615.1,286047001.4,N
1533174616.0,286047001.4,N
1533174635.8,286047001.7,N
1533174655.7,286047004.3,Y
1533174675.5,286046999.8,P
1533174695.3,286047002.4,P
1533174715.2,286047002.7,N
1533174735.9,286047000.0,N
1533174755.7,286047000.0,N
1533174775.6,286047001.9,N
1533174795.4,286047001.5,N
1533174815.2,286047001.6,N
1533174835.1,286047002.1,N
1533174836.0,286047002.1,N
1533174855.8,286047001.7,N
1533174875.7,286047004.1,Y
1533174895.5,286046999.8,P
1533174915.3,286047000.0,N
1533174935.2,286046999.7,N
1533174955.0,286047000.5,N
1533174955.9,286047000.5,N
1533174975.8,286047000.6,N
1533174995.6,286046999.9,N
1533175015.4,286046999.7,N
1533175035.3,286047001.9,Y
1533175055.1,286047002.6,P
1533175075.8,286046999.8,N
1533175095.7,286047002.2,N
1533175115.5,286047000.1,N
1533175135.4,286046999.9,N
1533175155.2,286047002.3,N
1533175175.0,286047002.5,N
1533175175.9,286047002.5,N
1533175195.8,286047002.4,N
